Location: Vale
(35.4830°N, 81.3830°W)
Time: 17:24:56
(UTC-04:00)

SR - All Passes

Search period start: 24 April 2014 00:00
Search period end: 04 May 2014 00:00
Orbit: 580 x 886 km, 66.7° (Epoch: 23 April)

Date Brightness Start Highest point End Pass type
(mag) Time Alt. Az. Time Alt. Az. Time Alt. Az.
24 Apr - 11:55:31 10° SW 11:59:46 68° WNW 12:04:19 10° NNE daylight
24 Apr - 20:38:42 10° NNW 20:43:58 45° ENE 20:49:32 10° SE visible
24 Apr - 22:21:30 10° NW 22:25:56 24° WSW 22:30:31 10° SSW visible
25 Apr - 11:07:39 10° S 11:11:46 50° ESE 11:16:09 10° NE daylight
25 Apr - 12:51:43 10° W 12:54:17 15° NW 12:56:57 10° NNW daylight
25 Apr - 19:51:12 10° N 19:55:40 25° NE 20:00:19 10° ESE daylight
25 Apr - 21:32:41 10° NW 21:38:02 48° WSW 21:43:39 10° S visible
26 Apr - 10:20:41 10° SSE 10:23:57 22° ESE 10:27:21 10° ENE daylight
26 Apr - 12:02:02 10° WSW 12:05:51 30° NW 12:09:53 10° N daylight
26 Apr - 19:04:26 10° NNE 19:07:10 14° NE 19:09:59 10° ENE daylight
26 Apr - 20:44:26 10° NNW 20:50:01 88° ENE 20:55:54 10° SSE visible
26 Apr - 22:30:01 10° W 22:31:34 11° WSW 22:33:07 10° WSW visible
27 Apr - 11:13:22 10° SW 11:17:37 66° WNW 11:22:11 10° NNE daylight
27 Apr - 19:56:32 10° NNW 20:01:52 46° ENE 20:07:28 10° SE daylight
27 Apr - 21:39:25 10° WNW 21:43:48 24° WSW 21:48:20 10° SSW visible
28 Apr - 10:25:27 10° S 10:29:36 52° ESE 10:34:02 10° NE daylight
28 Apr - 12:09:38 10° W 12:12:09 15° NW 12:14:45 10° NNW daylight
28 Apr - 19:09:01 10° N 19:13:33 25° NE 19:18:18 10° ESE daylight
28 Apr - 20:50:34 10° NW 20:55:55 46° WSW 21:01:30 10° S visible
29 Apr - 09:38:25 10° SSE 09:41:46 22° ESE 09:45:16 10° NE daylight
29 Apr - 11:19:54 10° WSW 11:23:41 29° NW 11:27:44 10° N daylight
29 Apr - 18:22:09 10° NNE 18:25:03 14° NE 18:28:02 10° E daylight
29 Apr - 20:02:16 10° NNW 20:07:53 89° WSW 20:13:47 10° SSE daylight
29 Apr - 21:48:10 10° W 21:49:24 11° WSW 21:50:39 10° WSW visible
30 Apr - 10:31:11 10° SW 10:35:26 63° WNW 10:40:02 10° NNE daylight
30 Apr - 19:14:21 10° NNW 19:19:44 48° ENE 19:25:23 10° SE daylight
30 Apr - 20:57:18 10° WNW 21:01:39 23° WSW 21:06:07 10° SSW visible
01 May - 09:43:13 10° S 09:47:24 55° ESE 09:51:53 10° NE daylight
01 May - 11:27:32 10° W 11:29:59 14° NW 11:32:32 10° NNW daylight
01 May - 18:26:47 10° N 18:31:25 26° NE 18:36:14 10° ESE daylight
01 May - 20:08:24 10° NW 20:13:45 45° WSW 20:19:19 10° S daylight
02 May - 08:56:08 10° SSE 08:59:33 23° ESE 09:03:09 10° NE daylight
02 May - 10:37:44 10° WSW 10:41:30 28° NW 10:45:32 10° N daylight
02 May - 17:39:51 10° NNE 17:42:55 15° NE 17:46:02 10° E daylight
02 May - 19:20:05 10° NNW 19:25:44 87° WSW 19:31:38 10° SSE daylight
02 May - 21:06:25 10° W 21:07:13 10° WSW 21:08:02 10° WSW visible
03 May - 09:48:58 10° SW 09:53:14 61° WNW 09:57:51 10° NNE daylight
03 May - 18:32:08 10° NNW 18:37:34 49° ENE 18:43:15 10° SE daylight
03 May - 20:15:10 10° WNW 20:19:28 22° WSW 20:23:53 10° SSW daylight
